Theta_e
327 329 328 329 329 324 323 329 328 328 331 338 339 337 340 335 334 337 337 331 329 327 324 323 321 318 316 315 314 310 312 311 310 311 311 310 310 309 309 308 308 307 307 308
332 328 325 326 327 328 327 329 328 330 331 335 336 335 337 336 335 336 336 331 329 327 324 323 320 318 316 315 312 311 310 310 311 310 309 309 309 309 308 309 308 308 308 308
329 329 328 328 327 329 330 329 327 328 336 336 337 337 334 331 334 337 333 331 330 327 325 324 320 318 316 314 312 310 310 311 311 310 309 309 308 308 309 307 308 308 307 307
327 330 333 329 328 329 331 330 331 337 338 337 336 332 330 333 334 336 334 331 330 328 325 321 318 317 315 312 310 309 311 311 310 308 308 307 307 308 306 306 307 307 307 307
331 334 329 329 329 330 334 331 333 334 337 335 333 333 336 336 335 333 331 329 327 323 320 318 317 315 312 308 308 311 312 309 309 308 308 308 308 308 306 306 306 306 307 307
333 334 335 332 335 333 332 336 332 334 335 334 333 336 337 332 331 330 328 325 322 320 318 315 313 312 308 311 312 311 309 309 308 308 308 307 307 305 305 305 305 307 306 308
339 333 333 335 333 332 333 335 338 332 331 331 333 334 332 331 330 328 324 322 320 318 315 313 311 310 312 310 309 309 308 308 308 308 307 307 306 306 306 307 307 305 305 306
336 337 338 334 331 333 332 335 338 338 337 335 334 333 331 329 327 324 322 320 318 315 313 311 310 309 310 309 309 309 308 309 309 309 309 308 307 306 307 307 306 304 305 305
334 334 333 334 333 331 331 336 336 335 334 332 332 331 329 327 324 322 321 318 315 313 311 310 310 311 310 310 309 309 310 309 308 307 307 305 305 306 306 306 305 305 305 303
338 340 336 335 333 332 331 334 333 332 332 331 331 329 327 324 321 321 318 315 314 312 311 309 309 311 312 310 310 310 309 309 309 307 305 305 305 306 306 307 305 304 303 302
337 336 335 334 330 327 332 333 332 331 331 330 329 327 325 323 321 318 317 316 314 311 310 309 310 311 310 309 309 309 309 309 308 306 304 305 306 306 306 303 303 303 302 301
339 335 335 334 330 328 329 331 331 331 330 328 327 326 323 322 320 319 317 314 313 311 310 312 313 310 310 309 309 309 309 309 306 305 303 303 304 305 305 303 303 303 302 301
328 329 333 332 332 331 330 330 329 329 328 328 326 324 323 320 320 317 314 312 312 312 314 313 310 309 309 308 309 308 308 308 308 303 302 302 304 306 307 303 303 302 302 301
325 328 329 329 330 328 330 329 328 328 327 326 325 324 322 320 318 315 313 313 314 314 313 311 309 309 309 308 307 308 309 308 305 302 303 304 304 305 306 305 303 302 302 301
325 325 325 325 330 328 327 327 326 326 325 324 324 322 320 318 316 314 314 315 314 313 312 309 310 309 308 308 309 308 308 308 304 303 303 304 305 305 304 303 302 302 301 300
323 323 324 326 329 329 327 326 325 325 324 323 322 320 320 319 316 315 314 313 313 312 310 310 310 308 308 308 308 307 306 305 305 303 303 304 304 305 304 303 302 302 300 299
327 327 326 329 330 330 329 325 324 324 324 322 320 319 318 315 314 314 313 314 313 311 310 311 309 308 307 307 306 302 304 303 305 304 305 304 304 304 303 302 302 301 299 298
322 326 327 328 328 326 326 326 325 324 323 322 319 318 316 314 314 314 314 313 312 312 311 310 309 308 307 305 298 300 302 305 305 305 304 304 304 304 303 302 301 300 298 298
319 320 321 325 327 326 326 325 325 324 322 321 319 318 316 315 315 314 313 313 313 312 310 310 305 307 307 306 301 301 302 305 305 305 303 303 304 303 303 302 301 299 299 298
317 318 319 319 320 325 324 326 324 323 322 320 320 318 318 316 315 314 314 314 314 312 311 309 308 308 306 302 300 303 304 304 305 304 303 303 305 303 303 302 300 299 298 298
315 315 315 319 318 321 325 325 323 322 321 321 319 319 318 316 315 314 313 311 312 311 308 308 304 303 300 301 303 304 305 304 302 302 304 304 304 303 303 301 300 299 298 298
315 314 312 315 317 316 323 323 323 322 322 322 320 318 317 316 314 315 315 312 310 308 305 307 305 303 302 303 304 304 304 301 300 302 304 304 304 303 302 301 299 298 297 298
319 319 318 317 314 313 315 321 320 322 322 320 319 318 317 316 314 312 310 308 307 305 304 302 300 298 302 302 303 304 300 300 301 302 304 303 303 301 301 299 299 297 297 297
318 318 320 320 319 316 317 319 322 322 322 319 318 318 317 314 314 312 309 306 305 305 302 299 298 300 301 303 303 300 300 300 301 302 302 302 301 300 299 299 298 297 297 297
317 318 318 319 321 321 321 323 323 321 321 320 318 316 314 314 312 307 306 304 304 302 298 297 300 301 303 302 301 301 300 299 300 300 300 300 300 299 298 298 297 296 297 296
318 319 318 319 320 320 320 320 320 319 318 316 315 313 311 309 308 306 303 303 302 298 297 301 301 302 302 300 300 300 299 298 298 298 298 298 299 298 297 297 297 296 295 294
316 317 318 319 319 317 318 320 318 317 316 315 313 310 308 307 305 304 303 302 303 301 299 300 301 302 301 299 299 299 298 297 297 297 296 295 296 297 297 296 296 295 295 294
Wind_Speed
11 13 14 8 9 11 9 7 8 9 9 9 10 15 18 22 18 19 18 13 12 10 13 23 20 20 17 11 4 2 2 1 2 3 3 7 7 8 8 9 7 13 14 12
8 13 18 15 15 11 9 7 6 9 6 7 6 16 18 19 18 18 17 18 15 12 18 19 22 20 17 9 4 3 2 4 4 5 5 7 7 6 10 10 11 13 15 16
7 7 8 14 17 15 9 9 7 9 6 9 7 7 13 15 18 16 14 17 14 14 18 22 22 22 16 9 5 3 3 5 6 4 4 5 8 12 7 10 12 15 18 19
5 4 12 6 8 10 12 15 6 16 11 8 9 8 9 6 18 13 15 13 13 17 21 25 24 19 14 8 5 4 5 8 3 5 6 8 9 8 12 13 14 17 21 23
6 7 6 12 10 6 3 5 18 20 21 17 13 15 11 14 15 14 12 13 20 27 30 26 21 14 9 5 5 6 8 5 6 7 8 8 11 12 11 15 19 21 24 26
2 9 15 1 3 6 2 4 10 22 21 19 11 7 3 11 18 16 22 25 25 28 28 24 17 12 8 4 6 2 7 5 6 8 6 11 10 12 16 17 21 23 22 17
6 7 5 2 2 4 6 7 6 9 16 13 8 10 11 15 14 23 25 27 29 27 24 18 12 10 3 3 6 4 4 5 7 6 9 12 9 16 17 21 21 9 15 11
3 3 6 1 3 5 6 11 18 16 14 8 18 19 16 16 15 18 22 24 26 25 20 14 10 9 6 4 2 2 3 6 7 9 10 12 11 17 18 18 0 8 10 11
9 8 8 10 5 6 7 18 18 24 21 14 19 18 16 14 14 16 20 22 25 22 16 11 7 8 7 5 2 3 6 8 9 10 10 15 16 19 21 16 9 7 11 13
7 8 12 10 6 9 6 13 20 22 20 20 20 17 15 14 12 12 19 22 23 20 17 11 8 7 3 7 3 5 7 8 11 10 12 13 19 17 18 13 4 8 10 10
5 13 10 6 5 9 16 19 20 20 21 20 19 15 16 13 10 17 20 22 24 21 17 13 11 7 6 5 3 4 7 10 12 14 16 20 19 16 12 6 5 7 6 7
2 6 4 6 4 6 17 13 16 20 18 18 18 16 15 11 20 20 21 23 20 19 16 14 12 9 7 5 2 4 5 9 12 13 16 15 16 16 17 3 3 7 4 10
3 7 6 7 5 6 7 8 15 18 18 19 19 22 19 18 19 25 24 21 16 14 16 14 12 10 6 4 2 4 8 10 12 12 15 17 21 21 18 2 2 4 11 15
6 14 8 13 5 16 18 9 17 21 22 23 24 24 23 20 25 23 23 20 17 16 17 13 10 11 6 3 3 5 8 12 7 15 13 18 21 17 17 14 11 13 16 14
8 13 9 12 4 9 17 15 16 15 15 16 23 22 24 18 18 22 20 20 18 18 14 11 13 10 6 4 5 8 12 9 13 14 16 20 12 16 16 14 14 17 16 21
6 12 21 22 15 9 13 14 16 15 12 15 19 21 21 23 24 23 22 19 19 16 12 13 13 8 5 4 6 8 14 16 17 14 16 10 15 14 13 12 13 14 17 19
5 20 20 14 13 8 11 13 13 14 16 19 21 24 22 25 25 22 19 15 19 16 12 12 13 8 4 3 8 9 12 18 15 10 6 14 10 11 11 11 10 13 16 18
13 7 12 11 13 13 12 10 14 17 17 24 27 27 23 22 17 21 19 22 19 16 15 12 8 6 3 8 10 9 14 15 14 13 8 15 13 11 11 9 8 11 15 20
6 7 10 8 8 11 10 11 16 21 24 24 23 20 25 25 23 22 21 18 17 18 12 7 4 6 4 9 11 12 15 13 17 15 14 16 10 10 14 7 7 10 17 19
4 6 13 15 19 16 12 17 21 21 24 27 24 23 21 25 25 23 18 14 12 18 14 9 7 4 2 6 10 15 9 13 16 14 13 14 7 10 12 9 10 13 20 20
4 4 1 8 11 13 19 23 24 20 24 24 25 22 25 26 27 26 24 19 16 14 11 11 9 11 6 5 12 13 14 13 17 16 14 16 17 10 11 12 13 17 20 23
7 4 4 9 12 9 14 24 26 23 18 20 26 27 28 26 24 17 19 22 15 10 11 9 5 3 2 5 8 10 13 14 15 18 15 17 16 16 14 12 14 19 24 23
12 11 10 6 14 13 13 18 24 29 22 22 28 28 24 24 26 24 16 18 17 14 12 10 6 5 5 5 12 10 15 17 13 17 17 18 19 20 19 17 16 23 24 23
10 13 12 12 11 15 6 9 21 25 28 29 21 25 27 23 19 20 22 21 16 12 10 8 6 7 6 11 13 14 15 14 14 16 16 17 17 18 20 19 19 25 23 22
6 4 6 7 10 10 14 14 21 24 26 28 27 20 24 23 28 24 26 22 17 13 11 11 9 11 16 15 15 13 14 12 14 17 17 18 16 17 19 18 20 22 21 20
4 4 8 7 9 10 9 8 15 22 29 24 29 25 28 30 28 26 22 18 13 14 14 10 8 9 10 12 12 14 14 14 13 16 16 17 16 18 19 18 19 21 23 22
8 8 10 14 14 15 12 15 22 21 27 29 27 27 29 27 25 25 20 17 16 12 12 9 9 10 11 13 13 13 12 12 14 15 14 15 17 17 18 17 20 22 23 25
Wind_Direction
220 211 248 261 275 214 213 204 180 229 229 162 164 132 125 123 129 148 166 177 157 153 140 140 144 137 133 137 143 138 314 197 290 291 303 301 291 309 290 315 297 327 328 319
221 219 227 253 270 265 222 261 209 198 204 169 106 121 140 152 158 166 181 157 155 147 140 146 146 143 141 143 127 163 222 262 256 253 286 302 301 317 318 306 311 321 319 318
237 221 217 246 234 252 220 215 219 214 163 130 137 134 149 160 169 167 157 150 149 152 150 152 151 143 137 135 160 194 254 278 296 277 317 360 347 333 4 350 334 324 316 313
216 180 229 239 200 249 260 204 158 95 94 87 98 88 67 74 155 142 134 143 141 134 125 132 130 125 128 147 176 207 251 282 1 13 4 358 347 345 341 334 322 316 315 311
183 207 244 239 256 228 103 250 153 141 148 137 115 81 42 72 98 114 122 120 119 124 127 124 123 129 138 163 183 243 297 55 13 350 342 342 333 324 330 323 318 317 321 311
191 207 229 122 124 263 97 70 7 139 138 139 132 107 136 97 100 98 102 110 114 117 121 121 125 136 144 175 251 74 41 6 336 323 342 333 335 336 327 324 317 323 337 5
225 232 247 109 272 276 124 195 40 151 151 155 139 141 137 109 96 102 108 110 115 119 120 123 131 135 163 118 77 34 9 333 319 348 339 329 323 332 320 315 321 1 37 61
136 63 266 184 57 150 205 134 104 86 98 100 114 114 109 108 108 110 113 111 116 116 120 127 137 149 132 84 66 34 335 318 330 326 324 327 313 322 321 321 226 360 20 38
184 200 275 281 236 168 170 129 126 128 123 132 120 115 117 117 111 114 118 117 123 125 127 139 148 160 143 143 99 355 334 10 352 335 330 333 327 316 314 306 294 26 48 21
140 178 163 229 304 139 167 135 131 132 136 133 128 125 122 113 120 124 123 124 132 138 137 137 149 149 172 127 61 0 12 338 323 341 341 326 330 327 322 316 48 53 22 10
106 147 141 182 184 120 111 124 128 130 133 130 124 125 123 127 130 128 134 139 145 146 149 159 174 189 132 91 49 28 358 8 1 348 342 331 340 347 342 341 61 44 25 357
312 4 286 148 188 152 137 142 140 134 133 132 125 125 131 135 131 138 134 142 141 149 161 173 170 148 137 118 42 347 352 354 350 345 341 340 333 338 325 345 81 28 18 351
286 295 39 54 74 67 103 111 118 124 126 125 127 133 131 132 136 133 136 136 147 168 160 147 136 137 129 104 27 13 348 339 331 330 326 325 320 319 333 152 58 30 7 2
353 44 18 17 336 90 84 43 85 98 109 119 125 126 128 126 128 132 144 159 168 144 132 132 136 122 103 77 0 347 336 331 321 341 326 323 327 4 78 73 60 18 5 4
125 122 98 7 39 193 134 121 106 103 108 110 118 120 126 129 132 148 159 148 138 130 127 132 129 112 101 38 3 335 327 307 315 321 331 338 27 42 56 48 31 15 7 354
173 158 141 171 202 93 100 104 110 115 108 110 112 120 131 136 138 136 133 134 130 128 131 121 115 105 81 24 351 326 336 332 311 304 325 23 11 82 55 38 22 23 13 3
157 199 210 144 119 107 112 120 125 124 124 122 125 132 133 127 130 132 133 136 130 121 117 124 107 89 78 30 338 321 327 334 339 332 35 15 11 75 46 24 38 31 15 1
280 154 139 121 108 107 105 103 110 121 130 135 136 138 132 133 138 137 129 125 121 114 116 117 117 91 30 1 355 351 347 358 7 355 34 10 10 62 29 23 46 25 11 4
352 42 77 81 118 117 126 121 118 125 134 137 137 137 142 144 141 136 132 132 136 129 130 123 102 117 25 356 1 356 356 6 11 28 23 12 93 52 21 29 58 27 8 1
353 36 80 80 74 93 94 131 137 132 139 142 139 138 130 138 137 132 121 102 143 145 136 116 119 108 358 345 350 354 14 23 3 17 22 8 27 36 27 67 54 25 11 3
320 332 113 124 116 98 124 126 131 136 148 145 139 134 135 140 141 134 121 112 126 135 126 131 101 90 40 45 18 27 28 32 20 18 28 8 349 18 60 57 42 22 12 360
329 277 221 139 128 128 146 142 146 142 142 145 138 134 136 136 143 137 157 144 139 127 131 144 114 50 20 33 29 27 34 43 26 12 21 6 18 50 50 50 38 19 9 355
14 22 63 103 154 180 178 171 157 153 145 145 143 143 136 134 127 118 120 139 134 127 134 123 96 89 112 13 9 58 60 45 29 13 18 27 35 49 43 33 21 11 5 353
30 15 22 24 160 181 126 163 169 173 163 167 144 139 141 112 121 141 137 145 136 124 121 109 102 114 22 22 69 63 55 45 20 16 30 35 40 35 30 19 13 3 358 352
47 356 328 64 62 79 90 95 119 134 135 131 136 132 142 150 143 139 140 137 134 120 112 114 92 55 57 71 60 64 56 45 28 30 35 34 34 27 18 10 1 357 356 353
75 66 93 70 77 81 109 131 106 120 118 110 117 125 122 132 133 133 129 127 118 120 121 105 76 76 66 70 67 64 58 53 37 36 35 32 29 22 15 6 2 356 355 354
108 104 103 70 75 71 87 122 116 120 124 123 118 121 123 129 131 130 131 132 125 121 116 105 95 82 72 78 72 66 58 47 41 36 33 30 26 20 15 9 359 353 358 360